This is the latest recevied weather packets stored in our database for station/object N6SPP. If no packets are shown the sender has not sent any weather packets the latest 10 day(s).
| Time | Temp. | Humidity | Pressure | Rain* | Wind** | Luminosity | Snow |
|---|---|---|---|---|---|---|---|
| 1777498394 | 26.11° C | 34% | 1018.6 hPa | 0 mm | - | 697 W/m² | - |
| 1777498091 | 26.11° C | 37% | 1018.5 hPa | 0 mm | - | 704 W/m² | - |
| 1777497789 | 26.11° C | 37% | 1018.6 hPa | 0 mm | - | 712 W/m² | - |
| 1777497485 | 26.11° C | 36% | 1018.5 hPa | 0 mm | - | 719 W/m² | - |
| 1777497181 | 26.11° C | 37% | 1018.7 hPa | 0 mm | - | 724 W/m² | - |
| 1777496878 | 26.11° C | 37% | 1018.7 hPa | 0 mm | - | 731 W/m² | - |
| 1777496575 | 25.56° C | 38% | 1018.5 hPa | 0 mm | - | 737 W/m² | - |
| 1777496271 | 25.56° C | 41% | 1018.8 hPa | 0 mm | - | 743 W/m² | - |
| 1777495967 | 25.56° C | 41% | 1018.7 hPa | 0 mm | - | 744 W/m² | - |
| 1777495663 | 25.56° C | 40% | 1018.8 hPa | 0 mm | - | 750 W/m² | - |
| 1777495359 | 25.56° C | 41% | 1018.9 hPa | 0 mm | - | 754 W/m² | - |
| 1777495056 | 26.11° C | 44% | 1018.9 hPa | 0 mm | - | 759 W/m² | - |
| 1777494754 | 25.56° C | 43% | 1018.7 hPa | 0 mm | - | 763 W/m² | - |
| 1777494451 | 25° C | 42% | 1019 hPa | 0 mm | - | 765 W/m² | - |
| 1777494147 | 25.56° C | 43% | 1019.2 hPa | 0 mm | - | 767 W/m² | - |
| 1777493844 | 25.56° C | 43% | 1019.2 hPa | 0 mm | - | 769 W/m² | - |
| 1777493543 | 25.56° C | 44% | 1019.1 hPa | 0 mm | - | 770 W/m² | - |
| 1777493240 | 25° C | 46% | 1019.2 hPa | 0 mm | - | 771 W/m² | - |
| 1777492936 | 24.44° C | 47% | 1019.3 hPa | 0 mm | - | 774 W/m² | - |
| 1777492632 | 25° C | 47% | 1019.3 hPa | 0 mm | - | 726 W/m² | - |
| 1777492328 | 25° C | 46% | 1019.2 hPa | 0 mm | - | 757 W/m² | - |
| 1777492025 | 24.44° C | 48% | 1019.3 hPa | 0 mm | - | 557 W/m² | - |
| 1777491722 | 25° C | 48% | 1019.3 hPa | 0 mm | - | 543 W/m² | - |
| 1777491419 | 24.44° C | 47% | 1019.6 hPa | 0 mm | - | 769 W/m² | - |
| 1777491116 | 23.89° C | 47% | 1019.6 hPa | 0 mm | - | 772 W/m² | - |
* Rain latest hour (hover to see other rain measurements)
** Current wind speed in m/s (hover to see current wind gust speed)